SL-14 DEB, 45316

Orbit data source: Space-Track

SL-14 DEB, 45316 is space debris in LEO originally from a launch on Thu, 15 Aug 1991 UTC launched from the Plesetsk Missile And Space Complex (PKMTR). Debris objects in space refer to the collection of defunct objects orbiting the Earth. Examples of debris include non-operational satellites, rocket bodies, and fragments generated from explosions, collisions, or faulty payload assembly.

Loading next visibility...
Identifier
45316, 1991-056BE
Orbit
LEO
Country
Flag of CISCIS
Related business
Manufacturer
Unknown
Mission
Spacecraft
Bus & Motor
Unknown
Mass
Unknown
Launch date (UTC)
1991-08-15 (34 years ago)
Launch vehicle
Unknown
Launch site
Plesetsk Missile And Space Complex (PKMTR)
Object type
Payload
Rocket body
Debris
Shape & HBR
Unknown shape, 0.2 m
Radar Cross Section
Small (<0.1 m²)

Expand to show TLE details & history
Last TLE update: 7 hours ago

TLE from 7 hours ago
0 SL-14 DEB
1 45316U 91056BE  25292.27160499  .00002065  00000-0  41159-2 0  9993
2 45316  82.5935 286.2056 0100918 235.6331 123.5224 13.32467083274957
Epoch: 2025-10-19T06:31Z
TLE epoch observation values (Epoch: 2025-10-19T06:31:06.671Z)
Latitude
0.00001°
Longitude
160.43715°
Altitude
1,182.725 km
Speed
7.242 km/s
True Right ascension
19h 04m 49s
True Declination
0° 00' 00"
Sunlit
Object was in daylight at epoch
Visualization orbit readout
Latitude
Unknown
Longitude
Unknown
Altitude
Unknown
Speed
Unknown
Apparent Right ascension
Unknown
Apparent Declination
Unknown
Sunlit
N/A
Visualization observer readout
Local Sidereal Time
08:37:25
Azimuth
Unknown
Elevation
Unknown
Doppler factor
Unknown
Orbital elements
Apogee altitude
1,210.511 km
Perigee altitude
1,058.875 km
Semi-major axis
7,512.83 km
Eccentricity
0.01009
Inclination
82.5935°
RAAN
286.2056°
Arg. of periapsis
235.6331°
True anomaly
124.47977°
Mean anomaly
123.5224°
Eccentric anomaly
124.00175°
Mean motion
3.33302 °/min
Orbital period
108.01 mins
BSTAR
0.0041159
Loading maneuver chart data...
Computing Atmospheric mass density...
Loading historical data...
Loading historical data...
Loading historical data...
Loading historical data...
Loading historical data...
Loading historical data...
Loading historical data...

Documentation

Showing up to 5 results
|